This is the latest recevied weather packets stored in our database for station/object AA8FM-13. If no packets are shown the sender has not sent any weather packets the latest 10 day(s).
| Time | Temp. | Humidity | Pressure | Rain* | Wind** | Luminosity | Snow |
|---|---|---|---|---|---|---|---|
| 1778018733 | 23.33° C | 45% | 1006.7 hPa | 0 mm | - | 104 W/m² | - |
| 1778018431 | 23.33° C | 46% | 1006.7 hPa | 0 mm | - | 168 W/m² | - |
| 1778018129 | 22.78° C | 46% | 1006.8 hPa | 0 mm | - | 158 W/m² | - |
| 1778017827 | 22.78° C | 45% | 1006.7 hPa | 0 mm | - | 145 W/m² | - |
| 1778017525 | 22.78° C | 46% | 1007.1 hPa | 0 mm | - | 130 W/m² | - |
| 1778017221 | 22.78° C | 47% | 1007.1 hPa | 0 mm | - | 123 W/m² | - |
| 1778016919 | 23.33° C | 45% | 1007.1 hPa | 0 mm | - | 121 W/m² | - |
| 1778016615 | 23.33° C | 46% | 1007.1 hPa | 0 mm | - | 138 W/m² | - |
| 1778016311 | 23.33° C | 46% | 1006.9 hPa | 0 mm | - | 168 W/m² | - |
| 1778016009 | 23.33° C | 45% | 1006.9 hPa | 0 mm | - | 169 W/m² | - |
| 1778015706 | 23.33° C | 46% | 1007.2 hPa | 0 mm | - | 218 W/m² | - |
| 1778015402 | 23.33° C | 45% | 1006.7 hPa | 0 mm | - | 226 W/m² | - |
| 1778015099 | 23.33° C | 46% | 1006.7 hPa | 0 mm | - | 197 W/m² | - |
| 1778014796 | 23.33° C | 47% | 1006.6 hPa | 0 mm | - | 179 W/m² | - |
| 1778014495 | 23.33° C | 44% | 1006.6 hPa | 0 mm | - | 190 W/m² | - |
| 1778014191 | 23.33° C | 46% | 1006.6 hPa | 0 mm | - | 245 W/m² | - |
| 1778013889 | 23.33° C | 45% | 1006.6 hPa | 0 mm | - | 214 W/m² | - |
| 1778013586 | 23.33° C | 45% | 1006.5 hPa | 0 mm | - | 210 W/m² | - |
| 1778013283 | 23.33° C | 45% | 1006.9 hPa | 0 mm | - | 201 W/m² | - |
| 1778012979 | 23.33° C | 45% | 1006.8 hPa | 0 mm | - | 210 W/m² | - |
| 1778012675 | 23.33° C | 44% | 1006.9 hPa | 0 mm | - | 247 W/m² | - |
| 1778012371 | 23.33° C | 44% | 1006.9 hPa | 0 mm | - | 288 W/m² | - |
| 1778012069 | 23.89° C | 43% | 1006.9 hPa | 0 mm | - | 301 W/m² | - |
| 1778011767 | 23.89° C | 45% | 1006.7 hPa | 0 mm | - | 330 W/m² | - |
| 1778011464 | 23.89° C | 45% | 1006.9 hPa | 0 mm | - | 293 W/m² | - |
* Rain latest hour (hover to see other rain measurements)
** Current wind speed in m/s (hover to see current wind gust speed)